EHI
0 1 1 1 0 0 0 0 0 0 0 0 0 0 0 0 0 0 0 0 0 0 0 0 0 0 0 0 0 0 0 0 0 0 0 0 0 0 0 0 0 0 0
0 0 0 0 0 0 0 0 0 0 0 0 0 0 0 0 0 0 0 0 0 0 0 0 0 0 0 0 0 0 0 0 0 0 0 0 0 0 0 0 0 0 0
0 0 0 0 0 0 0 0 0 0 0 0 0 0 0 0 0 0 0 0 0 0 0 0 0 0 0 0 0 0 0 0 0 0 0 0 0 0 0 0 0 0 0
0 0 0 0 0 0 0 0 0 0 0 0 0 0 0 0 0 0 0 0 0 0 0 0 0 0 0 0 0 0 0 0 0 0 0 0 0 0 0 0 0 0 0
0 0 0 0 0 0 0 0 0 0 0 0 0 0 0 0 0 0 0 0 0 0 0 0 0 0 0 0 0 0 0 0 0 0 0 0 0 0 0 0 0 0 0
0 0 0 0 0 0 0 1 1 0 0 0 0 0 0 0 0 0 0 0 0 0 0 0 0 0 0 0 0 0 0 0 0 0 0 0 0 0 0 0 0 0 0
0 0 0 0 0 0 0 1 1 1 0 0 0 0 0 0 0 0 0 0 0 0 0 0 0 0 0 0 0 0 0 0 0 0 0 0 0 0 0 0 0 0 0
0 0 0 0 0 0 0 1 1 1 0 0 0 0 0 0 0 0 0 0 0 0 0 0 0 0 0 0 0 0 0 0 0 0 0 0 0 0 0 0 0 0 0
0 0 0 0 0 0 0 0 0 0 0 0 0 0 0 0 0 0 0 0 0 0 0 0 0 0 0 0 0 0 0 0 0 0 0 0 0 0 0 0 0 0 0
0 0 0 0 0 0 0 0 0 0 0 0 0 0 0 0 0 0 0 0 0 0 0 0 0 0 0 0 0 0 0 0 0 0 0 0 0 0 0 0 0 0 0
0 0 0 0 0 0 0 0 0 0 0 0 0 0 0 0 0 0 0 0 0 0 0 0 0 0 0 0 0 0 0 0 0 0 0 0 0 0 0 0 0 0 0
0 0 0 0 0 0 0 0 0 0 0 0 0 0 0 0 0 0 0 0 0 0 0 0 0 0 0 0 0 0 0 0 0 0 0 0 0 0 0 0 0 0 0
0 0 0 0 0 0 0 0 0 0 0 0 0 0 0 0 0 0 0 0 0 0 0 0 0 0 0 0 0 0 0 0 0 0 0 0 0 0 0 0 0 0 0
0 0 0 0 0 0 0 0 0 0 0 0 0 0 0 0 0 0 0 0 0 0 0 0 0 0 0 0 0 0 0 0 0 0 0 0 0 0 0 0 0 0 0
0 0 0 0 0 0 0 0 0 0 0 0 0 0 0 0 0 0 0 0 0 0 0 0 0 0 0 0 0 0 0 0 0 0 0 0 0 0 0 0 0 0 0
0 0 0 0 0 0 0 0 0 0 0 0 0 0 0 0 0 0 0 0 0 0 0 0 0 0 0 0 0 0 0 0 0 0 0 0 0 0 0 0 0 0 0
0 0 0 0 0 0 0 0 0 0 0 0 0 0 0 0 0 0 0 0 0 0 0 0 0 0 0 0 0 0 0 0 0 0 0 0 0 0 0 0 0 0 0
0 0 0 0 0 0 0 0 0 0 0 0 0 0 0 0 0 0 0 0 0 0 0 0 0 0 0 0 0 0 0 0 0 0 0 0 0 0 0 0 0 0 0
0 0 0 0 0 0 0 0 0 0 0 0 0 0 0 0 0 0 0 0 0 0 0 0 0 0 0 0 0 0 0 0 0 0 0 0 0 0 0 0 0 0 0
0 0 0 0 0 0 0 0 0 0 0 0 0 0 0 0 0 0 0 0 0 0 0 0 0 0 0 0 0 0 0 0 0 0 0 0 0 0 0 0 0 0 0
0 0 0 0 0 0 0 0 0 0 0 0 0 0 0 0 0 0 0 0 0 0 0 0 0 0 0 0 0 0 0 0 0 0 0 0 0 0 0 0 0 0 0
0 0 0 0 0 0 0 0 0 0 0 0 0 0 0 0 0 0 0 0 0 0 0 0 0 0 0 0 0 0 0 0 0 0 0 0 0 0 0 0 0 0 0
0 0 0 0 0 0 0 0 0 0 0 0 0 0 0 0 0 0 0 0 0 0 0 0 0 0 0 0 0 0 0 0 0 0 0 0 0 0 0 0 0 0 0
0 0 0 0 0 0 0 0 0 0 0 0 0 0 0 0 0 0 0 0 0 0 0 0 0 0 0 0 0 0 0 0 0 0 0 0 0 0 0 0 0 0 0
0 0 0 0 0 0 0 0 0 0 0 0 0 0 0 0 0 0 0 0 0 0 0 0 0 0 0 0 0 0 0 0 0 0 0 0 0 0 0 0 0 0 0
0 0 0 0 0 0 0 0 0 0 0 0 0 0 0 0 0 0 0 0 0 0 0 0 0 0 0 0 0 0 0 0 0 0 0 0 0 0 0 0 0 0 0
Wind_Speed
4 5 6 7 9 10 10 10 10 10 11 13 14 14 14 14 13 12 11 11 11 10 8 9 8 7 5 4 3 3 3 3 3 1 1 1 2 2 1 0 0 1 1
3 3 6 6 7 8 10 10 10 10 11 12 13 14 14 14 14 14 13 12 12 12 11 10 9 7 7 5 4 4 3 3 3 3 1 1 1 2 1 0 1 1 1
2 3 4 5 6 8 9 10 10 10 10 12 13 13 14 14 14 14 13 12 12 11 11 10 10 9 8 6 6 5 4 3 3 3 2 1 1 1 1 1 2 2 2
2 2 3 5 6 7 7 8 9 9 10 11 12 13 13 13 13 13 13 12 11 9 9 9 9 10 10 9 7 6 5 4 3 3 2 1 1 1 1 1 2 2 2
2 2 3 3 4 4 5 6 7 8 8 9 11 12 12 11 12 13 12 12 11 10 8 8 8 10 10 9 7 6 6 5 4 3 2 2 1 1 1 0 1 2 2
2 2 3 2 2 3 4 5 6 7 7 9 10 11 12 10 15 18 14 11 11 10 9 8 8 9 10 11 10 10 9 8 6 4 3 3 2 2 1 0 1 1 2
2 2 3 2 3 3 3 4 5 6 7 8 9 11 11 12 17 18 17 12 10 10 10 9 7 7 10 8 9 9 7 8 8 6 5 4 4 3 3 2 1 0 2
3 3 3 2 2 2 3 3 4 5 6 7 8 9 10 12 18 19 18 12 9 9 10 10 10 9 9 10 8 7 5 4 5 4 5 4 4 3 4 3 2 1 2
3 3 3 2 2 2 3 4 3 4 5 6 7 8 9 11 17 19 17 9 8 8 9 9 10 10 15 16 11 9 6 4 6 8 8 7 7 7 6 4 2 2 1
4 4 3 3 3 3 4 4 3 3 4 5 5 7 8 10 15 18 17 8 9 8 7 8 12 13 17 17 12 11 9 6 6 6 7 7 6 6 6 4 3 2 1
4 3 3 3 3 4 4 3 3 3 3 4 5 5 7 9 15 18 18 9 9 9 8 7 8 16 17 17 13 9 11 10 7 6 5 5 4 3 3 2 2 2 1
3 3 3 3 3 3 3 3 4 4 4 5 5 5 5 7 11 15 18 14 12 9 8 7 9 17 17 16 11 12 16 13 6 6 5 4 3 2 2 2 2 2 1
3 3 3 3 3 4 4 4 4 4 4 4 4 5 4 5 8 14 16 16 15 8 7 13 15 18 16 12 13 16 14 8 7 6 5 4 3 3 3 2 3 2 2
3 3 2 3 3 3 3 3 3 4 5 5 5 5 4 5 6 7 8 9 11 9 8 13 17 17 11 11 12 10 6 6 6 6 5 4 3 3 3 2 1 1 2
3 3 2 2 2 2 2 2 3 3 5 6 6 6 7 6 7 12 10 8 7 8 10 8 7 7 7 6 6 6 5 5 5 5 5 5 4 3 2 2 1 1 1
2 2 2 2 1 2 2 0 0 2 4 6 7 7 6 8 13 13 14 15 16 18 12 9 8 8 8 8 8 6 5 5 5 5 5 5 4 4 3 2 1 1 0
2 3 2 2 1 1 2 2 1 1 2 4 7 8 9 12 14 15 16 18 18 17 8 8 8 8 8 7 7 7 6 5 5 5 5 5 4 4 3 2 1 1 0
3 3 3 2 1 1 2 2 2 3 2 2 4 9 12 13 15 16 17 15 10 8 6 8 8 8 8 8 8 7 6 6 5 5 5 5 4 4 3 3 2 1 1
3 2 1 1 1 2 2 2 2 3 3 3 3 5 10 12 14 15 15 8 8 7 6 6 7 7 8 8 8 7 7 7 6 6 5 5 5 4 3 3 2 2 1
2 3 3 2 2 2 2 3 3 3 4 4 4 5 6 7 6 7 6 5 6 7 7 7 7 7 7 8 8 8 7 7 7 5 5 5 4 4 4 4 3 2 1
1 2 3 2 2 2 3 3 3 4 4 4 4 6 9 6 6 6 6 5 6 7 7 7 7 8 7 7 7 8 8 7 6 6 5 5 5 4 3 3 3 2 2
2 2 2 2 2 2 3 3 3 4 4 5 4 6 10 6 5 6 5 5 5 5 6 7 7 7 8 8 9 9 8 8 7 6 6 5 5 4 4 4 3 3 2
2 2 2 2 2 3 3 3 4 4 4 4 5 5 6 5 5 5 6 5 5 6 6 6 7 7 7 6 7 8 9 9 8 9 8 7 6 5 5 4 4 4 3
2 3 3 3 2 3 3 3 3 4 4 5 5 5 5 5 5 6 6 5 6 6 6 6 7 9 11 8 6 6 6 7 8 8 9 8 7 6 5 5 4 4 3
2 3 3 3 3 3 3 4 4 4 4 5 5 5 5 5 6 6 6 6 7 7 7 7 7 9 11 11 9 8 12 14 12 9 8 7 8 7 6 6 5 4 3
3 3 3 3 3 3 4 4 4 4 4 5 5 6 6 6 6 6 6 6 6 7 7 7 8 9 11 10 11 14 17 17 17 15 9 7 8 7 7 5 6 5 4
Wind_Direction
248 221 205 205 203 202 201 200 199 195 188 182 180 181 181 181 179 179 180 178 181 183 181 183 186 178 174 174 166 163 168 159 189 206 96 105 112 138 113 96 257 291 294
253 244 213 202 203 205 203 199 198 196 191 183 180 181 183 183 181 181 183 183 184 185 185 182 184 176 175 172 169 172 177 172 169 188 167 129 140 149 121 352 338 343 308
272 257 234 208 204 206 205 200 198 196 192 184 182 184 185 184 183 183 182 184 185 186 184 184 182 177 181 176 171 176 176 166 157 159 167 144 105 90 66 1 343 332 323
297 273 251 224 214 208 206 202 197 193 191 186 185 185 185 183 181 180 179 180 181 181 181 182 181 182 183 178 177 175 163 160 160 152 150 144 112 82 81 4 324 324 322
285 278 271 255 228 212 206 200 194 194 193 185 184 183 181 181 182 178 176 176 176 176 176 178 178 176 176 174 170 169 164 165 163 160 158 135 138 120 186 210 304 323 318
271 269 280 270 251 217 206 198 189 192 191 187 185 182 181 184 179 176 173 173 173 175 176 174 170 170 167 165 163 163 165 169 173 170 174 174 185 177 147 123 68 5 301
276 259 256 248 258 238 217 204 196 193 185 186 187 183 183 180 174 172 171 171 174 176 174 169 165 166 161 159 154 148 154 160 165 167 170 180 171 176 159 156 152 271 260
279 275 242 227 232 234 222 219 208 196 185 186 186 185 180 176 170 169 167 171 172 173 171 169 166 164 164 156 147 142 137 136 149 148 155 158 152 154 159 157 149 43 332
276 275 252 229 225 225 220 216 212 197 190 186 182 181 179 174 169 165 163 168 168 169 166 165 164 166 163 153 148 146 136 123 108 116 116 117 115 113 112 107 99 65 349
270 264 246 228 220 222 224 217 201 199 193 182 181 181 176 173 168 165 163 167 165 163 160 164 165 164 162 158 158 156 154 150 132 117 107 101 98 105 103 117 142 120 50
267 252 240 232 224 220 221 210 192 189 180 181 178 177 174 172 167 167 168 170 169 164 163 165 166 162 162 162 159 162 158 145 140 131 121 112 99 93 89 87 101 134 140
271 253 235 228 227 220 212 206 190 181 177 179 171 165 167 168 168 172 172 170 163 164 164 161 159 158 159 158 155 148 141 135 133 132 129 130 129 123 107 95 85 73 98
272 262 243 234 222 212 202 201 190 184 181 176 169 168 165 162 163 166 168 164 159 157 154 154 151 152 151 153 149 144 140 138 140 141 147 150 146 137 117 94 73 62 33
272 269 256 236 222 209 206 198 195 191 183 174 170 169 161 158 159 161 162 154 147 142 139 142 142 142 138 139 142 141 138 145 146 148 144 136 129 126 124 112 92 59 32
274 273 270 241 219 209 214 210 210 217 203 185 180 174 170 174 173 163 159 157 156 148 136 129 132 139 139 137 133 131 133 137 134 132 135 136 135 129 127 116 102 77 48
276 270 263 245 230 202 178 138 199 201 193 185 182 178 174 165 158 158 157 153 150 147 139 144 149 153 154 153 151 147 146 149 145 141 142 143 144 143 137 131 110 88 60
268 269 261 239 224 206 179 170 151 69 126 154 162 165 160 155 156 156 154 150 151 149 143 151 156 158 156 154 155 154 154 152 146 145 145 145 143 142 142 149 148 118 68
264 261 251 225 211 209 190 184 178 171 157 138 144 153 152 153 154 154 150 143 150 155 151 156 159 158 156 156 155 152 148 148 147 147 145 146 147 147 150 159 164 160 144
265 257 238 214 212 209 191 181 176 174 163 152 138 142 147 147 148 153 152 151 156 159 153 154 155 154 154 153 152 151 151 154 152 150 150 150 152 151 155 158 159 161 118
262 257 255 224 209 203 187 180 177 170 164 167 168 157 147 143 146 154 156 150 152 154 153 153 151 150 150 150 150 150 150 151 151 151 153 152 153 155 157 156 155 156 153
246 243 250 234 217 200 188 187 181 169 171 173 172 167 165 159 159 159 158 154 156 156 154 152 150 149 149 149 150 152 153 154 155 155 154 153 153 151 149 147 146 141 129
234 233 232 223 217 203 195 186 175 171 169 170 160 157 162 155 153 155 155 154 152 149 150 150 151 153 155 157 157 155 156 156 156 155 152 150 149 146 142 141 138 135 128
223 230 243 232 208 201 202 179 173 170 168 168 162 158 160 158 157 153 151 149 146 143 143 146 147 147 147 150 155 158 160 163 162 158 153 150 149 148 146 146 146 141 137
223 223 230 226 209 191 179 176 173 170 167 165 161 160 160 156 151 146 145 145 145 143 145 147 149 151 149 148 149 149 147 146 146 150 149 148 147 146 145 145 146 145 143
234 227 223 216 204 185 175 173 170 169 167 162 156 154 153 150 148 145 145 145 145 146 146 146 145 147 150 150 150 149 146 143 141 140 141 141 141 142 144 142 140 140 138
242 233 222 205 195 183 178 176 173 170 166 162 156 155 154 152 150 149 148 148 147 146 146 145 145 146 148 149 148 147 147 146 144 140 137 138 139 141 141 137 136 136 137